Location: Mapua
(41.2500°S, 173.1000°E)
Time: 10:27:37
(UTC+13:00)

Envisat - Visible Passes

Search period start: 13 November 2019 00:00
Search period end: 23 November 2019 00:00
Orbit: 764 x 766 km, 98.1° (Epoch: 12 November)

Date Brightness Start Highest point End Pass type
(mag) Time Alt. Az. Time Alt. Az. Time Alt. Az.
13 Nov 6.1 21:55:28 10° SSW 21:58:18 15° WSW 22:01:09 10° W visible
14 Nov 5.2 21:17:28 10° S 21:21:57 31° WSW 21:26:23 10° NW visible
16 Nov 5.9 21:43:41 10° SSW 21:47:11 19° WSW 21:50:39 10° WNW visible
17 Nov 4.7 21:06:01 10° S 21:10:46 38° WSW 21:15:27 10° NW visible
18 Nov 6.4 22:10:57 10° SW 22:12:18 11° WSW 22:13:39 10° WSW visible
19 Nov 5.7 21:32:04 10° SSW 21:36:02 23° WSW 21:39:59 10° WNW visible
20 Nov 4.3 20:54:36 10° S 20:59:33 48° WSW 21:04:26 10° NW visible
21 Nov 6.2 21:58:40 10° SSW 22:01:11 14° WSW 22:03:43 10° W visible
22 Nov 5.4 21:20:31 10° S 21:24:52 28° WSW 21:29:11 10° NW visible
